Timeline UpdatesTrip UpdatesNews PostsPvt PostsTravel TipsAdmin PostsConv PostsFollowed PostsChat RequestsBlog PostsPNR Posts

Disclaimer
Search
 
 
Tue Sep 30, 2014 21:26:09 ISTHomeTrainsΣChainsAtlasPNRForumGalleryNewsFAQTripsMembersLoginFeedback
No Recent News for this Train
Other Trains in the News **new
Latest...
...
Wed Nov 20, 2013 (01:17AM)
⇐ Return Journey: Train# 12861

12722-Slip/Dakshin Link SF Express

Time-Table HAS CHANGED.
Sep 04 (10:14PM)
Change Departure Station:
Change Arrival Station:
Post a Train Travel TipPost a Train Travel Tip **new
Post a Comment/Question/Picture/VideoPost a Comment/Question/Picture/Video
Pantry/Catering
???
Loco/Rake Reversals
BZA/Vijayawada Junction (10);
RSA - Rake Sharing
Rake/Coach Composition
from KZJ to ; BZA is; LOCO-SLR-S10-S9-S8-A2-B2-GEN-GEN-GEN-GEN-GEN-SLR; COACH COMPOSITION for Link Dakshin Express (12722-slip&12862) from BZA to VSKP is; LOCO-SLR-GEN-GEN-GEN-GEN-GEN-B2-A2-S8-S9-S10-SLR.; author-suraj.
Loco
News    PNR    Forum    Time-Table    Availability    Fare Chart    Map    Arr/Dep History    Trips    Gallery    ΣChains    X/O    Timeline    
Travel Time: 31h 45m    48 halts    Distance: 1745 km    Avg Speed: 54 km/hr
Type: SuperFast
Zone: ECoR/East Coast
Departs @ 23:00 (Avg on time)
Platform# 7
SMTWTFS
Delhi Hazrat Nizamuddin/NZM 
Arrives @ 06:45 +2 nights
Platform# ???
SMTWTFS
Vijayawada Junction/BZA 

48 halts. 233 intermediate Stations between Delhi Hazrat Nizamuddin and Vijayawada Junction

Show ALL intermediate Stations  Show Old Time-Table

#CodeStation NameX/OArrivesAvgDepartsAvgHaltPFDay#KmSpeedElevZoneAddress
1NZMDelhi Hazrat Nizamuddin (7)»  -23:00+0710.069209mNRNew Delhi 110013, Delhi NCT
2FDBFaridabad (4)  23:18+423:20+42m3120.844206mNRold Faridabad, Haryana
3BVHBallabgarh (5)  23:31+423:33+42m--128.981203mNRFaridabad, Haryana
4KSVKosi Kalan (3)O  00:20+1200:22+122m2292.575189mNCRKosi Kalan, Uttar Pradesh
5MTJMathura Junction (10)X  00:55+1401:00+155m12134.046179mNCRMathura, Uttar Pradesh
6AGCAgra Cantt. (6)X  02:10+102:15+25m12187.690174mNCRAgra, Uttar Pradesh
7MRAMorena (3)  03:08+1903:10+192m12267.175176mNCRMorena, Madhya Pradesh
8GWLGwalior Junction (4)X  03:41+2203:46+225m12305.679214mNCRGwalior, Madhya Pradesh
9DAADatia (2)X  04:49 04:41+2604:51 04:43+272m--2378.341264mNCRDatia, Madhya Pradesh
10JHSJhansi Junction (7)X  05:20+2805:28 05:30+328 10m--2403.467259mNCRJhansi, Uttar Pradesh
11BABBabina (3)  05:38 05:53+4605:40 05:55+472m12428.986285mNCRBabina, Uttar Pradesh
12LARLalitpur (3)X  06:53 06:40+2806:55 06:42+302m12493.752373mNCRLalitpur, Uttar Pradesh
13BINABina Junction (5)X  07:55+2408:00+245m22556.669414mWCRJn Pt - KATNI/GUNA/ BPL/JHS, Madhya Pradesh
14MABAMandi Bamora (3)X  08:15+2808:17+282m22573.871413mWCRState Highway 14, Madhya Pradesh
15BAQGanj Basoda (4)X  08:41+2608:43+262m--2602.391 WCRVidisha, Madhya Pradesh
16BHSVidisha (3)  09:09+3509:11+352m22641.654 WCRVidisha, Madhya Pradesh
17BPLBhopal Junction (6)XO  10:15 10:10+2110:20 10:15+255m12695.225497mWCRBhopal, Madhya Pradesh
18HBJBhopal HabibGanj (5)  10:30+2710:32+272m--2701.470496mWCRHabibGanj, Madhya Pradesh
19HBDHoshangabad (2)XO  11:30+3711:32+362m--2768.825308mWCRHoshangabad, Madhya Pradesh
20ETItarsi Junction (7)  12:20 12:15+1212:25 12:20+185m32786.967329mWCRItarsi 461111, Madhya Pradesh
21GDYAGhoradongri (3)X  13:23+2713:25+272m--2857.245 CRBetul, Madhya Pradesh
22BZUBetul (3)X  14:13+2814:15+292m--2893.253644mCRBetul, Madhya Pradesh
23AMLAAmla Junction (5)X  14:41+2514:43+252m--2916.198733mCRAmla Distt. Betul, Madhya Pradesh
24MTYMultai (2)X  14:57+3014:59+302m--2938.953762mCRMultai, Madhya Pradesh
25PARPandhurna (2)X  15:45+3015:47+302m--2979.785481mCRDistt: Chhindwara, Madhya Pradesh
26NRKRNarkher Junction (4)  16:00+3316:02+332m--2998.075411mCRNarkher, Maharashtra
27KATLKatol (2)X  16:22+3316:24+332m--21023.251 CRKatol, Maharashtra
28NGPNagpur Junction (8)X  17:35+1917:45+2310m221084.083314mCRNagpur 440001, Maharashtra
29SNISindi (2)X  18:19+3418:21+342m--21130.959258mCRWardha, Maharashtra
30SEGMSewagram Junction (5)  18:51+3218:53+322m--21160.271279mCRWardha, Maharashtra
31HGTHinganghat (3)X  19:21+3219:23+322m--21193.478228mCRHinganghat, Maharashtra
32WRRWarora (2)  19:53+3119:55+322m--21232.470214mCRWarora, Maharashtra
33BUXBhandak (5)  20:14+3320:16+322m--21254.649207mCRChandrapur, Maharashtra
34CDChandrapur Maharashtra (3)  20:46+2520:48+262m--21278.813194mCRChandrapur 442401, Maharashtra
35BPQBalharshah Junction (5)X  21:50+622:00+1110m321292.687188mCRBallarpur. Ph : 07172 - 240341, Maharashtra
36SKZRSirpur Kaghaznagar (3)X  22:48+2722:50+262m221362.3100181mSCRAdilabad Dist., Telangana
37BPABellampalli (3)  23:13+3423:15+332m221400.879205mSCRTel:.08735 223298, Telangana
38MCIManchiryal (3)  23:30+3723:32+362m221420.792159mSCRAdilabad Dist., Telangana
39RDMRamagundam (3)  23:41+4423:43+442m221434.4105170mSCRKarimnagar Dist. Ph : 08728 - 255237, Telangana
40PDPLPeddapalli Junction (2)  23:53+5223:55+522m221452.085228mSCRKarimnagar Dist., Telangana
41JMKTJamikunta (2)X  00:23+5500:25+542m231491.439236mSCRKarimnagar Dist., Telangana
42KZJKazipet Junction (3)XO  01:20+5302:30+1170m--31527.047292mSCRWarangal Dist., Telangana
43WLWarangal (3)X  02:43-02:45-2m131537.281271mSCRWarangal., Telangana
44NKDNekonda (2)  03:07-03:09-2m131566.984236mSCRWarangal Dist., Telangana
45KDMKesamudram (2)X  03:20-03:22-2m131582.4149223mSCRWarangal Dist., Telangana
46MABDMahbubabad (2)X  03:28-03:30-2m131597.352200mSCRWarangal Dist., Telangana
47DKJDornakal Junction (3)X  03:58-04:00-2m231621.7115153mSCRWarangal District, Telangana
48KMTKhammam (2)  04:12-04:14-2m131644.893118mSCRKhammam 507001, Telangana
49MDRMadhira (2)X  04:43-04:45-2m131689.62861mSCRKhammam Dist., Telangana
50BZAVijayawada Junction (10)•06:45-07:05-20m--31745.17924mSCRVijayawada 520001, Andhra Pradesh
51EEEluru (3)X  07:50-07:52-2m--31804.59219mSCREluru Ph.no. 08812 226401., Andhra Pradesh
52TDDTadepalligudem (3)  08:23-08:25-2m231852.37518mSCRTadepalligudem, Andhra Pradesh
53NDDNidadavolu Junction (3)X  08:41-08:43-2m--31872.32720mSCRNidadavolu jtn ph.no. 08813-210325, Andhra Pradesh
54RJYRajahmundry (3)X  09:32-09:34-2m331894.47223mSCRRajahmundry ph.no. 0883-2420541, Andhra Pradesh
55SLOSamalkot Junction (3)X  10:16-10:18-2m131944.68818mSCRSamalkot, Andhra Pradesh
56ANVAnnavaram (3)  10:43-10:45-2m331981.57727mSCREast Godavari District, Andhra Pradesh
57TUNITuni (2)X  10:58-11:00-2m231998.15624mSCRTuni ph.no. 08854-252172, Andhra Pradesh
58AKPAnakapalle (3)O  12:08-12:10-2m--32061.92830mSCRAnakapalle ph.no . 08924-221698, Andhra Pradesh
59DVDDuvvada (4)X  12:43 12:44-12:45 12:46-2m--32077.92246mECoRVishakhapatnam District, Andhra Pradesh
60VSKPVisakhapatnam Junction (8)  13:30--632094.2-11mECoRVishakhapatnam 530001, Andhra Pradesh
Scroll to Top
Scroll to Bottom